RH
10 9 9 8 8 7 7 7 6 6 6 6 7 7 7 8 9 10 10 11 11 12 14 16 20 21 20 19 12 11 8 7 7 7 6 13 32 40 40 50 55 56 61 63 59 45 44
9 10 9 9 9 9 9 9 8 8 7 7 7 6 6 6 6 6 8 9 10 11 12 15 18 22 23 20 16 13 10 8 7 8 8 9 21 37 44 46 47 53 54 60 64 60 47
9 8 9 8 8 8 8 7 8 8 8 8 7 7 7 7 6 6 5 5 7 9 11 13 17 22 25 23 19 13 14 10 9 8 9 8 16 27 42 40 43 51 53 52 54 51 46
9 8 8 8 7 7 7 7 7 7 7 7 7 7 6 6 5 6 6 6 5 6 9 10 14 20 22 25 21 17 12 14 11 10 10 11 17 22 32 42 42 42 44 49 50 50 43
10 10 9 9 9 9 9 8 7 7 6 6 6 5 5 5 5 5 5 6 8 9 10 9 13 20 20 22 23 23 17 13 14 15 14 16 18 19 28 38 42 37 38 38 48 45 41
10 9 9 9 9 9 8 9 8 8 7 7 6 6 5 5 5 6 6 8 10 11 18 15 18 20 15 20 24 24 22 17 17 20 19 22 24 21 24 29 34 36 35 33 40 47 40
10 9 9 9 9 9 9 8 8 7 7 7 6 6 6 6 6 8 10 11 11 18 16 23 23 14 16 18 21 23 24 20 20 26 26 25 28 20 17 23 27 35 32 28 35 35 41
11 11 10 10 10 10 9 9 9 8 7 7 7 6 6 5 7 9 14 16 14 13 13 11 10 14 14 17 18 21 24 22 22 26 28 30 23 21 23 24 25 28 30 31 29 31 32
11 11 11 11 10 10 10 9 9 9 8 8 8 7 7 6 7 11 15 15 11 13 15 10 8 8 8 13 14 16 21 23 23 26 29 25 20 23 25 25 21 26 28 26 30 28 32
11 11 11 11 10 11 11 11 10 10 11 10 9 9 8 8 11 14 14 10 10 12 14 7 8 8 9 9 11 15 16 22 27 26 29 27 24 21 24 22 21 20 22 23 32 29 27
12 12 12 12 12 12 12 12 11 11 12 13 13 12 11 14 14 18 12 11 10 13 20 15 13 14 11 9 10 12 17 19 27 24 28 26 22 19 18 18 16 13 15 19 23 29 28
11 11 12 12 12 13 13 13 13 14 14 15 16 15 16 19 23 20 15 12 14 22 19 27 28 24 19 14 13 18 18 16 24 27 26 27 28 20 16 14 12 12 13 14 14 23 27
12 12 12 12 12 13 13 14 15 16 18 17 18 18 23 23 24 18 16 18 22 29 17 34 38 32 27 24 16 18 24 22 17 26 27 28 29 26 17 18 14 14 14 17 18 16 19
13 13 12 13 13 13 14 15 18 20 21 21 19 23 28 30 27 21 23 27 33 31 51 44 42 39 32 31 29 21 28 28 17 21 27 25 24 23 17 16 15 15 14 15 20 17 16
14 15 15 15 16 17 18 18 20 21 24 23 21 31 39 40 28 29 34 36 54 59 62 54 50 48 53 54 42 40 24 27 22 18 24 26 23 21 20 18 18 18 14 13 14 15 15
17 16 17 17 18 16 16 18 20 23 25 27 31 41 47 42 29 36 46 42 50 58 51 53 54 54 64 62 56 56 37 31 29 22 24 25 30 22 21 21 18 18 17 16 15 19 18
19 18 18 19 15 14 15 17 20 23 25 29 45 51 50 50 40 50 49 46 47 52 51 58 55 54 63 80 74 68 55 42 43 39 28 26 28 26 26 23 20 19 21 19 15 13 17
19 19 19 19 16 15 16 17 19 22 27 39 57 60 56 49 48 47 50 46 55 53 53 55 51 52 72 79 82 85 83 78 59 48 41 29 25 30 31 26 24 20 18 20 17 18 16
20 20 20 20 18 17 17 18 21 23 29 52 66 64 64 58 55 51 49 46 47 61 61 51 50 58 64 72 84 90 91 88 68 55 57 50 32 32 37 31 27 22 20 20 21 16 17
19 18 20 20 21 20 20 20 23 26 38 64 79 73 72 64 64 61 57 51 57 66 66 64 51 56 57 73 76 89 87 85 72 64 52 50 40 38 35 30 28 28 26 23 22 18 18
17 18 19 20 21 21 22 23 26 27 44 68 88 83 84 75 68 61 60 68 81 69 66 59 58 69 60 66 73 74 78 79 83 68 56 53 47 42 38 34 32 26 24 23 19 20 19
17 18 19 20 20 20 21 23 26 27 42 71 92 95 90 84 76 69 66 73 71 61 58 52 58 63 57 60 76 80 82 80 91 71 64 55 49 49 47 39 41 35 27 23 23 20 23
17 18 20 21 21 20 20 22 25 28 41 66 89 97 97 84 79 76 73 68 62 64 63 59 66 57 49 64 73 69 67 67 75 74 66 62 62 59 49 48 45 42 33 28 24 23 23
20 20 21 21 20 20 18 22 25 28 40 61 87 97 97 90 84 79 79 79 69 66 60 56 54 69 55 55 55 54 54 58 66 67 65 65 61 59 52 54 57 43 37 34 28 25 23
19 21 24 25 24 24 22 25 26 30 42 63 89 98 97 93 89 83 78 81 80 65 66 64 69 67 55 54 58 54 56 52 55 60 60 60 59 58 56 58 51 48 42 36 36 31 26
30 34 37 39 40 39 31 28 27 32 50 75 91 98 98 97 90 90 90 81 90 80 62 59 66 59 60 55 60 60 64 64 45 43 54 56 60 58 58 58 56 49 43 39 38 37 43
33 33 36 39 41 40 35 29 31 44 70 84 93 98 98 98 93 93 93 92 88 89 77 56 65 63 78 83 60 62 62 63 53 48 44 54 59 58 58 56 55 57 47 44 44 63 56
29 31 33 34 35 33 28 32 46 68 78 87 92 99 98 98 97 95 96 95 91 84 82 63 66 83 90 93 80 85 85 68 59 61 59 50 55 59 57 57 67 60 57 59 72 67 58
31 30 29 29 33 32 37 47 67 74 84 88 93 96 97 99 97 97 98 98 95 90 86 80 63 59 74 86 86 79 77 68 74 67 59 61 62 58 56 54 59 61 62 67 62 67 65